Weather Roundup
Issued by NWS

Home | Current Version | Previous Version | Text Only | Print | Product List | Glossary On
Versions: 1 2 3 4 5 6 7 8 9 10 11 12 13 14 15 16 17 18 19 20 21 22 23 24 25 26 27 28 29 30 31 32 33 34 35 36 37 38 39 40 41 42 43 44 45 46 47 48 49 50
000
NZUS93 KARX 231010
HRRWXR

CURRENT HOURLY OBSERVATIONS ACROSS
MUCH OF THE UPPER MISSISSIPPI VALLEY
NATIONAL WEATHER SERVICE LA CROSSE WI
500 AM CDT SAT MAY 23 2015


...SOUTHEAST MINNESOTA...


CITY           SKY/WX    TMP DP  RH WIND       PRES   REMARKS
ROCHESTER      MOCLDY    53  42  66 S6        30.24S
ROCHESTER/MAYO FAIR      54  42  62 CALM      30.24S
WINONA         PTCLDY    48  46  93 CALM      30.24S
AUSTIN         CLOUDY    52  45  76 CALM      30.25R
ALBERT LEA     MOCLDY    57  45  62 CALM      30.25R
DODGE CENTER   MOCLDY    52  41  66 CALM      30.23S
PRESTON        CLOUDY    52  41  66 CALM      30.24S
OWATONNA       MOCLDY    52  39  62 W5        30.24R
FARIBAULT      PTCLDY    52  43  71 W5        30.24R
$$

...ELSEWHERE IN MINNESOTA...


CITY           SKY/WX    TMP DP  RH WIND       PRES   REMARKS
MINNEAPOLIS    MOCLDY    52  41  66 CALM      30.22S
INTNL FALLS    CLEAR     46  37  71 SW6       30.14R
DULUTH         CLEAR     55  35  47 W8        30.20S
RED WING       CLEAR     45  43  93 E3        30.22S
REDWOOD FALLS  MOCLDY    54  44  69 SW3       30.24R
MANKATO        MOCLDY    55  43  62 CALM      30.24R
WORTHINGTON    CLOUDY    54  45  71 SE6       30.22S
FAIRMONT       CLOUDY    55  43  62 W8        30.25R
$$

...SOUTHWEST WISCONSIN...


CITY           SKY/WX    TMP DP  RH WIND       PRES   REMARKS
LA CROSSE      CLEAR     49  43  80 SE8       30.25R
PRAIRIE DU CHI PTCLDY    52  43  71 E3        30.27R
BOSCOBEL       FAIR      45  43  93 SW3       30.28R
LONE ROCK      CLEAR     47  38  71 E5        30.29R
PLATTEVILLE    CLEAR     49  38  66 E6        30.28R
FORT MC COY    CLEAR     36  35  96 CALM      30.27S
CAMP DOUGLAS   CLEAR     38  38 100 NE1       30.26S
VIROQUA        FAIR      50  40  68 SE8       30.27R
WIS DELLS      CLEAR     51  31  46 S6        30.28R
$$

...ELSEWHERE IN WISCONSIN...


CITY           SKY/WX    TMP DP  RH WIND       PRES   REMARKS
MILWAUKEE      PTCLDY    50  29  44 CALM      30.31R
MADISON        CLEAR     48  33  56 SE3       30.29R
GREEN BAY      CLEAR     40  34  79 CALM      30.29R
EAU CLAIRE     CLEAR     41  39  93 CALM      30.23S
BLACK RVR FLS  FAIR      34  34 100 CALM      30.26R
MEDFORD        CLEAR     41  36  81 CALM      30.26S
WAUSAU         CLEAR     42  38  85 E5        30.26R
WIS RAPIDS     CLEAR     47  34  60 S7        30.28S
MARSHFIELD     CLEAR     46  38  73 CALM      30.27R
RICE LAKE      CLEAR     41  40  95 CALM      30.26S
$$

...NORTHEAST IOWA...


CITY           SKY/WX    TMP DP  RH WIND       PRES   REMARKS
DECORAH        MOCLDY    54  45  71 S5        30.24R
MASON CITY     CLOUDY    55  46  71 NE3       30.25S
CHARLES CITY   CLOUDY    55  46  71 W5        30.25R
OELWEIN        MOCLDY    50  46  87 E6        30.26R
$$

...ELSEWHERE IN IOWA...


CITY           SKY/WX    TMP DP  RH WIND       PRES   REMARKS
DES MOINES     CLOUDY    58  48  69 SE6       30.24S
IOWA CITY      PTCLDY    55  50  83 CALM      30.27R
FORT DODGE     CLOUDY    55  46  71 SE5       30.25R
$$

...NORTHERN ILLINOIS...


CITY           SKY/WX    TMP DP  RH WIND       PRES   REMARKS
CHICAGO-OHARE  PTCLDY    50  37  61 S3        30.30R
CHICAGO-MIDWAY PTCLDY    56  33  42 S5        30.31R
MOLINE         CLOUDY    53  44  71 E3        30.27R
ROCKFORD       PTCLDY    46  36  68 CALM      30.32R
PEORIA         PTCLDY    59  44  57 CALM      30.29R
$$

NOTE: "FAIR" INDICATES FEW OR NO CLOUDS BELOW 12,000 FEET WITH NO
SIGNIFICANT WEATHER AND/OR OBSTRUCTIONS TO VISIBILITY. WIND
SPEEDS ARE IN MILES-PER-HOUR.



USA.gov is the U.S. government's official web portal to all federal, state and local government web resources and services.